Weather in Solovetskoye

Russia / Kostroma Oblast     59°03′39″N   47°16′56″E
temp.,
°C
wind,
m/s
gust,
m/s
humid.,
%
clouds,
%
prec.,
mm/h
press.,
hPa
HPBL,
m
20 june, sun
sun2000:00+19nnw2579100 0.0 1018106
03:00+16n28925 0.0 1020190
06:00+19ene23663 0.0 1021268
09:00+23ne11440 0.0 1021871
12:00+27wnw12401 0.0 10211523
15:00+27ssw2442100 0.0 10201781
18:00+23sse246582 0.0 101989
21:00+21sse3107264 0.0 1019297
21 june, mon
mon2100:00+17s229426 0.0 101927
03:00+17w229151 0.0 101935
06:00+21wsw25755 0.0 1019176
09:00+27wsw45537 0.0 1019774
12:00+30w4641100 0.0 10182257
15:00+31w4636100 0.0 10182650
18:00+27w2558100 0.0 1017124
21:00+22w227356 0.0 101819
22 june, tue
tue2200:00+21w227034 0.0 101954
03:00+19w237655 0.0 102045
06:00+23w25671 0.0 1020157
09:00+29w34495 0.0 1020726
12:00+32w343535 0.0 10192985
15:00+29sw354991 0.0 1019504
18:00+22n3770100 0.3 1019131
21:00+19wsw228793 0.6 101932
23 june, wed
wed2300:00+19w23866 0.0 101958
03:00+17nnw23954 0.5 102065
06:00+22w23812 0.0 1019129
09:00+27wnw34525 0.0 1019770
12:00+31nw34403 0.0 10192045
15:00+31wnw3336100 0.0 10182488
18:00+28e005814 0.0 101713
21:00+22w366915 0.0 1017141
24 june, thu
thu2400:00+18e11882 0.0 101815
03:00+17w239056 0.0 101951
06:00+22w227098 0.0 1018152
09:00+27w235476 0.0 1018634
12:00+31wsw33457 0.0 10181335
15:00+33wsw353658 0.0 10162796
18:00+18sse1395100 13.3 101889
21:00+20w248969 17.8 101760